Home > Weather > Ceuta > Past weeks

Flag for Spain Past Weather in Ceuta, Ceuta, Spain — Yesterday and Last 2 Weeks

Now
73 °F

Clear.


Feels Like: 77 °F
Forecast: 65 / 75 °F
Wind: 13 mph from Southwest

Location: Gibraltar Airport

Current Time: Jun 26, 2016 at 1:16:21 AM

Latest Report: Jun 25, 2016 at 11:50 PM


Visibility: N/A

Pressure: 29.95 "Hg

Humidity: 53%

Dew Point: 55 °F

Location of CeutaLocation

Past Weather in Ceuta — Graph

°F

Ceuta Temperature Yesterday

Maximum temperature yesterday: 88 °F (at 1:50 PM)
Minimum temperature yesterday: 66 °F (at 1:50 AM)
Average temperature yesterday: 76 °F

High & Low Weather Summary for the Past Weeks

 TemperatureHumidityPressure
High90 °F (Jun 13, 3:50 PM)100% (Jun 12, 9:50 PM)30.30 "Hg (Jun 12, 9:50 PM)
Low63 °F (Jun 16, 5:50 AM)28% (Jun 18, 3:50 PM)29.80 "Hg (Jun 15, 5:50 AM)
Average72 °F67%30.03 "Hg
* Reported Jun 10 11:50 PM — Jun 25 11:50 PM, Ceuta, Weather by CustomWeather, © 2016

Note: Actual official high and low records may vary slightly from our data, if they occured in-between our weather recording intervals... More about our weather records

Advertising

Ceuta Weather History for the Previous 24 Hours

Scroll right to see more
 ConditionsComfort  
Time TempWeatherWind HumidityBarometerVisibility
11:50 PM
Sat, Jun 25
73 °FClear.13 mph53%29.95 "HgN/A
10:50 PM72 °FClear.17 mph69%29.95 "HgN/A
9:50 PM73 °FSunny.12 mph65%29.92 "Hg10 mi
8:50 PM77 °FSunny.9 mph57%29.89 "Hg10 mi
7:50 PM82 °FSunny.8 mph42%29.89 "Hg10 mi
6:50 PM82 °FSunny.12 mph42%29.89 "Hg10 mi
5:50 PM79 °FSunny.14 mph54%29.92 "Hg10 mi
4:50 PM86 °FSunny.10 mph40%29.92 "Hg10 mi
3:50 PM84 °FSunny.14 mph43%29.95 "Hg10 mi
2:50 PM88 °FSunny.10 mph33%29.95 "Hg10 mi
1:50 PM88 °FSunny.8 mph35%29.95 "Hg10 mi
12:50 PM84 °FSunny.8 mph43%29.95 "Hg10 mi
11:50 AM82 °FSunny.8 mph45%29.98 "Hg10 mi
10:50 AM79 °FSunny.8 mph51%29.98 "Hg10 mi
9:50 AM75 °FSunny.7 mph54%29.98 "Hg10 mi
8:50 AM66 °FSunny.7 mph83%29.98 "Hg10 mi
7:50 AM68 °FClear.5 mph78%29.95 "Hg10 mi
6:50 AM68 °FClear.3 mph83%29.95 "Hg10 mi
5:50 AM68 °FClear.2 mph73%29.95 "HgN/A
4:50 AM68 °FClear.6 mph73%29.95 "HgN/A
3:50 AM68 °FClear.8 mph73%29.95 "HgN/A
1:50 AM66 °FClear.8 mph94%29.98 "Hg3 mi
Weather by CustomWeather, © 2016

See weather overviewHow to use our weather pages